DW7589 Weather Reports


Display with metric or nautical units.
time (UTC)temp
F
wind
direction
speed
MPH
gust
MPH
rain 1hr
in
rain 24hr
in
rain mn
in
humidity
%
barometer
mb
20260510220916 85 0 0.0 0.0 0.00 0.00 0.00 59 1012.7
20260510220415 86 0 0.0 0.0 0.00 0.00 0.00 60 1012.9
20260510215916 87 0 0.0 0.0 0.00 0.00 0.00 58 1013.0
20260510215415 87 0 0.0 0.0 0.00 0.00 0.00 59 1012.8
20260510214915 87 0 0.0 0.0 0.00 0.00 0.00 60 1012.7
20260510214416 87 0 0.0 0.0 0.00 0.00 0.00 58 1012.7
20260510213915 87 0 0.0 0.0 0.00 0.00 0.00 58 1012.7
20260510213416 87 0 0.0 0.0 0.00 0.00 0.00 56 1012.5
20260510212916 87 0 0.0 0.0 0.00 0.00 0.00 54 1012.6
20260510211916 86 0 0.0 0.0 0.00 0.00 0.00 57 1012.7
20260510211415 86 0 0.0 0.0 0.00 0.00 0.00 58 1012.8
20260510210917 86 0 0.0 0.0 0.00 0.00 0.00 58 1012.9
20260510210416 86 0 0.0 0.0 0.00 0.00 0.00 58 1012.9
20260510205916 87 0 0.0 0.0 0.00 0.00 0.00 57 1013.1
20260510205417 87 0 0.0 0.0 0.00 0.00 0.00 59 1013.3
20260510204916 87 0 0.0 0.0 0.00 0.00 0.00 59 1013.4
20260510204417 86 0 0.0 0.0 0.00 0.00 0.00 59 1013.3
20260510203916 86 0 0.0 0.0 0.00 0.00 0.00 59 1013.4
20260510203415 86 0 0.0 0.0 0.00 0.00 0.00 61 1013.6
20260510202916 86 0 0.0 0.0 0.00 0.00 0.00 61 1013.6
20260510202416 85 0 0.0 0.0 0.00 0.00 0.00 63 1013.8
20260510201916 85 0 0.0 0.0 0.00 0.00 0.00 62 1013.9
20260510200916 85 0 0.0 0.0 0.00 0.00 0.00 62 1013.9
20260510200416 85 0 0.0 0.0 0.00 0.00 0.00 61 1013.9
20260510195917 86 0 0.0 0.0 0.00 0.00 0.00 63 1014.0
20260510195415 85 0 0.0 0.0 0.00 0.00 0.00 62 1014.1
20260510194917 85 0 0.0 0.0 0.00 0.00 0.00 62 1014.2
20260510194416 85 0 0.0 0.0 0.00 0.00 0.00 62 1014.2
20260510193916 85 0 0.0 0.0 0.00 0.00 0.00 62 1014.3
20260510193416 85 0 0.0 0.0 0.00 0.00 0.00 62 1014.2
20260510192916 86 0 0.0 0.0 0.00 0.00 0.00 63 1014.3
20260510192416 85 0 0.0 0.0 0.00 0.00 0.00 62 1014.2
20260510191916 85 0 0.0 0.0 0.00 0.00 0.00 63 1014.2
20260510191416 85 0 0.0 0.0 0.00 0.00 0.00 61 1014.3
20260510190916 85 0 0.0 0.0 0.00 0.00 0.00 61 1014.4
20260510185916 86 0 0.0 0.0 0.00 0.00 0.00 61 1014.3
20260510184918 86 0 0.0 0.0 0.00 0.00 0.00 63 1014.2
20260510184416 85 0 0.0 0.0 0.00 0.00 0.00 63 1014.1
20260510183916 85 0 0.0 0.0 0.00 0.00 0.00 63 1014.0
20260510183417 84 0 0.0 0.0 0.00 0.00 0.00 65 1014.1
20260510182415 84 0 0.0 0.0 0.00 0.00 0.00 65 1013.8
20260510181916 84 0 0.0 0.0 0.00 0.00 0.00 64 1013.8
20260510181415 84 0 0.0 0.0 0.00 0.00 0.00 65 1013.8
20260510180916 84 0 0.0 0.0 0.00 0.00 0.00 65 1013.8
20260510180416 84 0 0.0 0.0 0.00 0.00 0.00 64 1013.7
20260510175916 85 0 0.0 0.0 0.00 0.00 0.00 64 1013.6
20260510175417 84 0 0.0 0.0 0.00 0.00 0.00 66 1013.7
20260510174915 83 0 0.0 0.0 0.00 0.00 0.00 66 1013.8
20260510174416 83 0 0.0 0.0 0.00 0.00 0.00 66 1013.8
20260510173915 83 0 0.0 0.0 0.00 0.00 0.00 67 1013.8
20260510173416 83 0 0.0 0.0 0.00 0.00 0.00 68 1013.8
20260510172918 82 0 0.0 0.0 0.00 0.00 0.00 68 1013.8
20260510172416 82 0 0.0 0.0 0.00 0.00 0.00 68 1013.8
20260510171916 82 0 0.0 0.0 0.00 0.00 0.00 69 1013.9
20260510171416 82 0 0.0 0.0 0.00 0.00 0.00 70 1013.8
20260510170917 81 0 0.0 0.0 0.00 0.00 0.00 70 1013.7
20260510170417 81 0 0.0 0.0 0.00 0.00 0.00 70 1013.7
20260510165916 81 0 0.0 0.0 0.00 0.00 0.00 70 1013.8
20260510165416 81 0 0.0 0.0 0.00 0.00 0.00 70 1013.8
20260510164916 81 0 0.0 0.0 0.00 0.00 0.00 71 1013.8
20260510164417 81 0 0.0 0.0 0.00 0.00 0.00 71 1013.7
20260510163917 81 0 0.0 0.0 0.00 0.00 0.00 72 1013.7
20260510163416 80 0 0.0 0.0 0.00 0.00 0.00 73 1013.8
20260510162916 80 0 0.0 0.0 0.00 0.00 0.00 73 1013.9
20260510162416 79 0 0.0 0.0 0.00 0.00 0.00 74 1013.9
20260510161916 79 0 0.0 0.0 0.00 0.00 0.00 75 1014.2
20260510161416 79 0 0.0 0.0 0.00 0.00 0.00 74 1014.2
20260510160916 79 0 0.0 0.0 0.00 0.00 0.00 76 1014.0
20260510160416 79 0 0.0 0.0 0.00 0.00 0.00 75 1013.9
20260510155916 79 0 0.0 0.0 0.00 0.00 0.00 75 1014.0
20260510154916 78 0 0.0 0.0 0.00 0.00 0.00 75 1014.1
20260510154416 78 0 0.0 0.0 0.00 0.00 0.00 77 1014.2
20260510153916 78 0 0.0 0.0 0.00 0.00 0.00 78 1014.2
20260510153416 77 0 0.0 0.0 0.00 0.00 0.00 78 1014.3
20260510152916 77 0 0.0 0.0 0.00 0.00 0.00 80 1014.2
20260510152416 77 0 0.0 0.0 0.00 0.00 0.00 80 1014.3
20260510151918 76 0 0.0 0.0 0.00 0.00 0.00 81 1014.3
20260510151416 76 0 0.0 0.0 0.00 0.00 0.00 81 1014.4
20260510150916 76 0 0.0 0.0 0.00 0.00 0.00 82 1014.3
20260510150416 76 0 0.0 0.0 0.00 0.00 0.00 82 1014.3
20260510145916 76 0 0.0 0.0 0.00 0.00 0.00 82 1014.3
20260510145416 76 0 0.0 0.0 0.00 0.00 0.00 82 1014.3
20260510144417 74 0 0.0 0.0 0.00 0.00 0.00 84 1014.3
20260510143916 74 0 0.0 0.0 0.00 0.00 0.00 84 1014.4
20260510143416 74 0 0.0 0.0 0.00 0.00 0.00 84 1014.5
20260510142916 74 0 0.0 0.0 0.00 0.00 0.00 84 1014.5
20260510142418 74 0 0.0 0.0 0.00 0.00 0.00 85 1014.5
20260510141916 74 0 0.0 0.0 0.00 0.00 0.00 85 1014.5
20260510140416 74 0 0.0 0.0 0.00 0.00 0.00 85 1014.4
20260510135916 74 0 0.0 0.0 0.00 0.00 0.00 86 1014.4
20260510135416 74 0 0.0 0.0 0.00 0.00 0.00 86 1014.3
20260510134416 73 0 0.0 0.0 0.00 0.00 0.00 87 1014.4
20260510133917 73 0 0.0 0.0 0.00 0.00 0.00 88 1014.4
20260510132916 72 0 0.0 0.0 0.00 0.00 0.00 89 1014.3
20260510132416 71 0 0.0 0.0 0.00 0.00 0.00 90 1014.3
20260510131917 71 0 0.0 0.0 0.00 0.00 0.00 90 1014.2
20260510131416 70 0 0.0 0.0 0.00 0.00 0.00 90 1014.1
20260510130916 70 0 0.0 0.0 0.00 0.00 0.00 90 1013.9
20260510130418 70 0 0.0 0.0 0.00 0.00 0.00 90 1013.9
20260510125916 70 0 0.0 0.0 0.00 0.00 0.00 90 1013.9
20260510124916 69 0 0.0 0.0 0.00 0.00 0.00 90 1013.7
20260510123917 69 0 0.0 0.0 0.00 0.00 0.00 90 1013.6
20260510123417 69 0 0.0 0.0 0.00 0.00 0.00 90 1013.7
20260510122916 68 0 0.0 0.0 0.00 0.00 0.00 90 1013.6
20260510122417 68 0 0.0 0.0 0.00 0.00 0.00 90 1013.5
20260510121916 68 0 0.0 0.0 0.00 0.00 0.00 90 1013.5
20260510121418 68 0 0.0 0.0 0.00 0.00 0.00 90 1013.4
20260510120416 68 0 0.0 0.0 0.00 0.00 0.00 89 1013.1
20260510115416 68 0 0.0 0.0 0.00 0.00 0.00 89 1012.9
20260510114918 68 0 0.0 0.0 0.00 0.00 0.00 89 1012.8
20260510114416 68 0 0.0 0.0 0.00 0.00 0.00 89 1012.8
20260510113917 68 0 0.0 0.0 0.00 0.00 0.00 89 1012.7
20260510113418 68 0 0.0 0.0 0.00 0.00 0.00 88 1012.6
20260510112916 68 0 0.0 0.0 0.00 0.00 0.00 88 1012.5
20260510112417 68 0 0.0 0.0 0.00 0.00 0.00 88 1012.3
20260510111418 68 0 0.0 0.0 0.00 0.00 0.00 88 1012.1
20260510110416 69 0 0.0 0.0 0.00 0.00 0.00 87 1012.0
20260510105916 69 0 0.0 0.0 0.00 0.00 0.00 87 1011.9
20260510105417 69 0 0.0 0.0 0.00 0.00 0.00 86 1011.7
20260510104918 69 0 0.0 0.0 0.00 0.00 0.00 86 1011.6
20260510104417 70 0 0.0 0.0 0.00 0.00 0.00 86 1011.4
20260510103916 70 0 0.0 0.0 0.00 0.00 0.00 86 1011.3
20260510103417 70 0 0.0 0.0 0.00 0.00 0.00 85 1011.1
20260510102918 70 0 0.0 0.0 0.00 0.00 0.00 85 1011.0
20260510102417 70 0 0.0 0.0 0.00 0.00 0.00 85 1010.9
20260510101916 70 0 0.0 0.0 0.00 0.00 0.00 85 1010.9
20260510101416 70 0 0.0 0.0 0.00 0.00 0.00 85 1010.7
20260510100917 70 0 0.0 0.0 0.00 0.00 0.00 85 1010.6
20260510100416 70 0 0.0 0.0 0.00 0.00 0.00 84 1010.5
20260510095917 70 0 0.0 0.0 0.00 0.00 0.00 84 1010.4
20260510095418 71 0 0.0 0.0 0.00 0.00 0.00 84 1010.3
20260510094918 71 0 0.0 0.0 0.00 0.00 0.00 84 1010.2
20260510094416 71 0 0.0 0.0 0.00 0.00 0.00 84 1010.0
20260510093417 71 0 0.0 0.0 0.00 0.00 0.00 83 1010.0
20260510092917 71 0 0.0 0.0 0.00 0.00 0.00 83 1010.0
20260510092416 71 0 0.0 0.0 0.00 0.00 0.00 83 1010.1
20260510091918 71 0 0.0 0.0 0.00 0.00 0.00 82 1010.1
20260510091417 72 0 0.0 0.0 0.00 0.00 0.00 81 1010.3
20260510090917 72 0 0.0 0.0 0.00 0.00 0.00 81 1010.3
20260510090416 72 0 0.0 0.0 0.00 0.00 0.00 81 1010.0
20260510085918 72 0 0.0 0.0 0.00 0.00 0.00 80 1010.0
20260510085416 72 0 0.0 0.0 0.00 0.00 0.00 80 1010.2
20260510084917 73 0 0.0 0.0 0.00 0.00 0.00 79 1010.2
20260510084417 73 0 0.0 0.0 0.00 0.00 0.00 79 1010.1
20260510083916 73 0 0.0 0.0 0.00 0.00 0.00 79 1009.9
20260510082916 73 0 0.0 0.0 0.00 0.00 0.00 78 1009.7
20260510081916 74 0 0.0 0.0 0.00 0.00 0.00 77 1009.8
20260510081418 74 0 0.0 0.0 0.00 0.00 0.00 76 1009.8
20260510080916 74 0 0.0 0.0 0.00 0.00 0.00 76 1009.6
20260510075916 74 0 0.0 0.0 0.00 0.00 0.00 75 1009.5
20260510075417 74 0 0.0 0.0 0.00 0.00 0.00 75 1009.3
20260510074918 74 0 0.0 0.0 0.00 0.00 0.00 75 1009.3
20260510074416 74 0 0.0 0.0 0.00 0.00 0.00 75 1009.1
20260510073917 75 0 0.0 0.0 0.00 0.00 0.00 75 1009.1
20260510073417 74 0 0.0 0.0 0.00 0.00 0.00 75 1009.1
20260510072916 74 0 0.0 0.0 0.00 0.00 0.00 75 1009.1
20260510072418 75 0 0.0 0.0 0.00 0.00 0.00 75 1009.2
20260510071917 75 0 0.0 0.0 0.00 0.00 0.00 75 1009.4
20260510071418 75 0 0.0 0.0 0.00 0.00 0.00 74 1009.4
20260510070917 75 0 0.0 0.0 0.00 0.00 0.00 74 1009.5
20260510070416 75 0 0.0 0.0 0.00 0.00 0.00 74 1009.6
20260510065416 75 0 0.0 0.0 0.00 0.00 0.00 73 1009.5
20260510064917 75 0 0.0 0.0 0.00 0.00 0.00 73 1009.5
20260510064416 75 0 0.0 0.0 0.00 0.00 0.00 72 1009.5
20260510063417 76 0 0.0 0.0 0.00 0.00 0.00 71 1009.6
20260510062916 76 0 0.0 0.0 0.00 0.00 0.00 71 1009.6
20260510062417 76 0 0.0 0.0 0.00 0.00 0.00 71 1009.6
20260510061416 76 0 0.0 0.0 0.00 0.00 0.00 71 1009.6
20260510060916 76 0 0.0 0.0 0.00 0.00 0.00 72 1009.5
20260510060417 76 0 0.0 0.0 0.00 0.00 0.00 72 1009.5
20260510055417 76 0 0.0 0.0 0.00 0.00 0.00 73 1009.4
20260510054916 76 0 0.0 0.0 0.00 0.00 0.00 73 1009.4
20260510054417 76 0 0.0 0.0 0.00 0.00 0.00 74 1009.4
20260510053916 76 0 0.0 0.0 0.00 0.00 0.00 74 1009.4
20260510053417 76 0 0.0 0.0 0.00 0.00 0.00 74 1009.4
20260510052918 76 0 0.0 0.0 0.00 0.00 0.00 75 1009.3
20260510052417 76 0 0.0 0.0 0.00 0.00 0.00 76 1009.4
20260510051417 76 0 0.0 0.0 0.00 0.00 0.00 77 1009.5
20260510050917 76 0 0.0 0.0 0.00 0.00 0.00 78 1009.5
20260510050416 76 0 0.0 0.0 0.00 0.00 0.00 79 1009.5
20260510045919 76 0 0.0 0.0 0.00 0.00 0.00 78 1009.4
20260510045417 77 0 0.0 0.0 0.00 0.00 0.00 78 1009.4
20260510044917 77 0 0.0 0.0 0.00 0.00 0.00 77 1009.5
20260510044418 77 0 0.0 0.0 0.00 0.00 0.00 77 1009.5
20260510043917 77 0 0.0 0.0 0.00 0.00 0.00 76 1009.4
20260510043418 77 0 0.0 0.0 0.00 0.00 0.00 76 1009.4
20260510042916 77 0 0.0 0.0 0.00 0.00 0.00 75 1009.5
20260510041917 77 0 0.0 0.0 0.00 0.00 0.00 74 1009.6
20260510040916 78 0 0.0 0.0 0.00 0.00 0.00 74 1009.6
20260510040417 78 0 0.0 0.0 0.00 0.00 0.00 74 1009.6
20260510035917 78 0 0.0 0.0 0.00 0.00 0.00 73 1009.6
20260510035417 78 0 0.0 0.0 0.00 0.00 0.00 73 1009.6
20260510034918 78 0 0.0 0.0 0.00 0.00 0.00 72 1009.5
20260510034417 78 0 0.0 0.0 0.00 0.00 0.00 72 1009.5
20260510033917 79 0 0.0 0.0 0.00 0.00 0.00 72 1009.5
20260510033417 79 0 0.0 0.0 0.00 0.00 0.00 72 1009.5
20260510032917 79 0 0.0 0.0 0.00 0.00 0.00 71 1009.4
20260510032416 79 0 0.0 0.0 0.00 0.00 0.00 71 1009.4
20260510031917 79 0 0.0 0.0 0.00 0.00 0.00 70 1009.4
20260510031417 80 0 0.0 0.0 0.00 0.00 0.00 69 1009.3
20260510030917 80 0 0.0 0.0 0.00 0.00 0.00 69 1009.2
20260510030417 80 0 0.0 0.0 0.00 0.00 0.00 68 1009.2
20260510025917 80 0 0.0 0.0 0.00 0.00 0.00 68 1009.2
20260510025416 80 0 0.0 0.0 0.00 0.00 0.00 67 1009.0
20260510024917 80 0 0.0 0.0 0.00 0.00 0.00 67 1008.9
20260510024417 81 0 0.0 0.0 0.00 0.00 0.00 66 1008.9
20260510023417 81 0 0.0 0.0 0.00 0.00 0.00 65 1008.8
20260510022918 81 0 0.0 0.0 0.00 0.00 0.00 65 1008.8
20260510022418 81 0 0.0 0.0 0.00 0.00 0.00 64 1008.7
20260510021918 82 0 0.0 0.0 0.00 0.00 0.00 64 1008.6
20260510021417 82 0 0.0 0.0 0.00 0.00 0.00 63 1008.6
20260510020917 82 0 0.0 0.0 0.00 0.00 0.00 63 1008.5
20260510020418 82 0 0.0 0.0 0.00 0.00 0.00 62 1008.4
20260510015917 82 0 0.0 0.0 0.00 0.00 0.00 62 1008.3
20260510015417 82 0 0.0 0.0 0.00 0.00 0.00 61 1008.3
20260510014917 82 0 0.0 0.0 0.00 0.00 0.00 60 1008.1
20260510014417 83 0 0.0 0.0 0.00 0.00 0.00 60 1008.1
20260510013917 83 0 0.0 0.0 0.00 0.00 0.00 58 1008.0
20260510013418 84 0 0.0 0.0 0.00 0.00 0.00 57 1007.9
20260510012417 85 0 0.0 0.0 0.00 0.00 0.00 54 1007.8
20260510011918 85 0 0.0 0.0 0.00 0.00 0.00 53 1007.8
20260510011417 86 0 0.0 0.0 0.00 0.00 0.00 51 1007.7
20260510010917 87 0 0.0 0.0 0.00 0.00 0.00 51 1007.6
20260510010418 87 0 0.0 0.0 0.00 0.00 0.00 50 1007.5
20260510005917 88 0 0.0 0.0 0.00 0.00 0.00 49 1007.5
20260510005417 89 0 0.0 0.0 0.00 0.00 0.00 48 1007.5
20260510004917 90 0 0.0 0.0 0.00 0.00 0.00 47 1007.5
20260510004417 91 0 0.0 0.0 0.00 0.00 0.00 46 1007.5
20260510003917 91 0 0.0 0.0 0.00 0.00 0.00 46 1007.5
20260510003417 91 0 0.0 0.0 0.00 0.00 0.00 47 1007.5
20260510001417 91 0 0.0 0.0 0.00 0.00 0.00 46 1007.3
20260510000917 90 0 0.0 0.0 0.00 0.00 0.00 47 1007.3
20260510000418 91 0 0.0 0.0 0.00 0.00 0.00 44 1007.2
20260509235917 91 0 0.0 0.0 0.00 0.00 0.00 45 1007.2
20260509235418 91 0 0.0 0.0 0.00 0.00 0.00 45 1007.1
20260509234917 91 0 0.0 0.0 0.00 0.00 0.00 44 1007.1
20260509234418 92 0 0.0 0.0 0.00 0.00 0.00 43 1007.1
20260509233417 92 0 0.0 0.0 0.00 0.00 0.00 43 1007.1
20260509232917 92 0 0.0 0.0 0.00 0.00 0.00 43 1007.1
20260509231917 92 0 0.0 0.0 0.00 0.00 0.00 44 1007.1
20260509231417 92 0 0.0 0.0 0.00 0.00 0.00 43 1007.1
20260509224917 93 0 0.0 0.0 0.00 0.00 0.00 42 1007.1
20260509224417 92 0 0.0 0.0 0.00 0.00 0.00 42 1007.2
20260509223917 92 0 0.0 0.0 0.00 0.00 0.00 43 1007.2
20260509223418 92 0 0.0 0.0 0.00 0.00 0.00 42 1007.1
20260509222917 93 0 0.0 0.0 0.00 0.00 0.00 41 1007.2
20260509221917 94 0 0.0 0.0 0.00 0.00 0.00 39 1007.1
20260509221418 94 0 0.0 0.0 0.00 0.00 0.00 42 1007.1